LOG762A EGPF-EGPA

Flight info

Callsign LOG762A
Flight time 0h 59m
Altitude 17000
Route FOYLE DCT NESDI DCT RIMOL DCT WIK DCT KOKAL
Aircraft AT76/M-SDFGIRY/S

Departure

Time 2026-04-26 21:16
Airport Glasgow Airport (EGPF)

Arrival

Time 2026-04-26 22:16
Airport Kirkwall Airport (EGPA)
Time Latitude Longitude Altitude Speed Heading
2026-04-26 20:39 55.86544 -4.43005 -2 ft 0 kts 254°
2026-04-26 21:03 55.86548 -4.42991 25 ft 4 kts 301°
2026-04-26 21:03 55.86535 -4.42963 29 ft 4 kts 308°
2026-04-26 21:03 55.86524 -4.42922 28 ft 3 kts 296°
2026-04-26 21:04 55.86526 -4.42937 25 ft 4 kts 282°
2026-04-26 21:04 55.86540 -4.42960 29 ft 4 kts 341°
2026-04-26 21:04 55.86561 -4.42952 25 ft 4 kts 28°
2026-04-26 21:04 55.86585 -4.42938 25 ft 4 kts
2026-04-26 21:05 55.86593 -4.42939 25 ft 0 kts 352°
2026-04-26 21:10 55.86628 -4.42935 28 ft 7 kts 10°
2026-04-26 21:10 55.86663 -4.42932 25 ft 8 kts 354°
2026-04-26 21:10 55.86719 -4.42955 29 ft 9 kts 342°
2026-04-26 21:10 55.86775 -4.42989 27 ft 8 kts 353°
2026-04-26 21:11 55.86836 -4.42989 28 ft 9 kts 11°
2026-04-26 21:11 55.86903 -4.42935 25 ft 11 kts 27°
2026-04-26 21:11 55.86974 -4.42870 25 ft 11 kts 25°
2026-04-26 21:11 55.87051 -4.42815 25 ft 12 kts 18°
2026-04-26 21:12 55.87133 -4.42765 25 ft 13 kts 19°
2026-04-26 21:12 55.87215 -4.42708 26 ft 13 kts 24°
2026-04-26 21:12 55.87300 -4.42649 28 ft 13 kts 19°
2026-04-26 21:12 55.87387 -4.42589 27 ft 13 kts 32°
2026-04-26 21:13 55.87455 -4.42466 25 ft 15 kts 46°
2026-04-26 21:13 55.87527 -4.42332 28 ft 15 kts 46°
2026-04-26 21:13 55.87597 -4.42201 26 ft 8 kts 46°
2026-04-26 21:13 55.87634 -4.42159 28 ft 1 kts 19°
2026-04-26 21:14 55.87656 -4.42150 27 ft 5 kts 12°
2026-04-26 21:14 55.87699 -4.42156 25 ft 7 kts 341°
2026-04-26 21:14 55.87739 -4.42204 25 ft 7 kts 319°
2026-04-26 21:14 55.87760 -4.42259 27 ft 4 kts 276°
2026-04-26 21:15 55.87749 -4.42293 25 ft 3 kts 226°
2026-04-26 21:15 55.87641 -4.42500 28 ft 53 kts 226°
2026-04-26 21:15 55.87248 -4.43231 28 ft 107 kts 226°
2026-04-26 21:15 55.86660 -4.44317 216 ft 129 kts 229°
2026-04-26 21:16 55.86058 -4.45541 595 ft 132 kts 232°
2026-04-26 21:16 55.85466 -4.46772 1136 ft 131 kts 229°
2026-04-26 21:16 55.84780 -4.47990 1463 ft 149 kts 227°
2026-04-26 21:16 55.84020 -4.49286 1970 ft 153 kts 229°
2026-04-26 21:17 55.83271 -4.50609 2475 ft 152 kts 229°
2026-04-26 21:17 55.82506 -4.51959 2832 ft 156 kts 228°
2026-04-26 21:17 55.81738 -4.53260 3244 ft 157 kts 229°
2026-04-26 21:17 55.80950 -4.54635 3561 ft 164 kts 229°
2026-04-26 21:18 55.80243 -4.56224 3919 ft 158 kts 235°
2026-04-26 21:18 55.79794 -4.57915 4228 ft 159 kts 272°
2026-04-26 21:18 55.80330 -4.59633 4469 ft 171 kts 324°
2026-04-26 21:18 55.81476 -4.60292 4801 ft 174 kts 334°
2026-04-26 21:19 55.82487 -4.61402 5077 ft 172 kts 329°
2026-04-26 21:19 55.83634 -4.62129 5371 ft 175 kts 327°
2026-04-26 21:19 55.84587 -4.63413 5666 ft 172 kts 319°
2026-04-26 21:19 55.85727 -4.64125 5857 ft 190 kts
2026-04-26 21:20 55.87030 -4.63265 5951 ft 209 kts 22°
2026-04-26 21:20 55.88283 -4.62110 6492 ft 198 kts 24°
2026-04-26 21:20 55.89389 -4.60737 6890 ft 198 kts 50°
2026-04-26 21:20 55.90139 -4.58671 7168 ft 198 kts 42°
2026-04-26 21:21 55.91195 -4.57134 7435 ft 197 kts 33°
2026-04-26 21:21 55.92282 -4.55634 7750 ft 198 kts 34°
2026-04-26 21:21 55.93349 -4.54060 8068 ft 200 kts 37°
2026-04-26 21:21 55.94387 -4.52394 8404 ft 201 kts 38°
2026-04-26 21:22 55.95603 -4.51383 8716 ft 191 kts 358°
2026-04-26 21:22 55.96916 -4.51580 9003 ft 189 kts 345°
2026-04-26 21:22 55.98204 -4.52060 9321 ft 190 kts 341°
2026-04-26 21:23 56.00713 -4.51234 9858 ft 208 kts 44°
2026-04-26 21:23 56.01603 -4.49170 10191 ft 211 kts 53°
2026-04-26 21:23 56.02403 -4.46959 10472 ft 212 kts 55°
2026-04-26 21:23 56.03185 -4.44712 10753 ft 213 kts 55°
2026-04-26 21:24 56.03978 -4.42467 11024 ft 214 kts 55°
2026-04-26 21:24 56.04799 -4.40250 11288 ft 213 kts 47°
2026-04-26 21:24 56.06005 -4.38891 11531 ft 203 kts
2026-04-26 21:24 56.07389 -4.38901 11738 ft 199 kts 352°
2026-04-26 21:25 56.08783 -4.39013 11988 ft 201 kts 353°
2026-04-26 21:25 56.10190 -4.39017 12247 ft 203 kts 356°
2026-04-26 21:25 56.11609 -4.38876 12497 ft 205 kts
2026-04-26 21:25 56.13036 -4.38604 12756 ft 207 kts
2026-04-26 21:26 56.14466 -4.38250 13005 ft 208 kts
2026-04-26 21:26 56.15904 -4.37886 13250 ft 209 kts
2026-04-26 21:26 56.17347 -4.37527 13505 ft 210 kts
2026-04-26 21:26 56.18796 -4.37180 13761 ft 211 kts
2026-04-26 21:27 56.20255 -4.36835 14006 ft 212 kts
2026-04-26 21:27 56.21719 -4.36495 14230 ft 212 kts
2026-04-26 21:27 56.23187 -4.36153 14466 ft 213 kts
2026-04-26 21:27 56.24635 -4.35802 14691 ft 213 kts
2026-04-26 21:28 56.26127 -4.35429 14923 ft 214 kts
2026-04-26 21:28 56.27583 -4.35077 15122 ft 214 kts
2026-04-26 21:28 56.29065 -4.34725 15327 ft 215 kts
2026-04-26 21:28 56.30548 -4.34377 15502 ft 215 kts
2026-04-26 21:29 56.32030 -4.34023 15724 ft 215 kts
2026-04-26 21:29 56.33516 -4.33670 15904 ft 216 kts
2026-04-26 21:29 56.35010 -4.33316 16084 ft 217 kts
2026-04-26 21:29 56.36507 -4.32963 16269 ft 218 kts
2026-04-26 21:30 56.38013 -4.32605 16441 ft 218 kts
2026-04-26 21:30 56.39518 -4.32248 16639 ft 219 kts
2026-04-26 21:30 56.41027 -4.31889 16807 ft 219 kts
2026-04-26 21:30 56.42540 -4.31528 16995 ft 220 kts
2026-04-26 21:31 56.44060 -4.31167 17142 ft 222 kts
2026-04-26 21:31 56.45610 -4.30799 17201 ft 228 kts
2026-04-26 21:31 56.47211 -4.30422 17232 ft 237 kts
2026-04-26 21:31 56.48864 -4.30023 17242 ft 242 kts
2026-04-26 21:32 56.50544 -4.29620 17267 ft 246 kts
2026-04-26 21:32 56.52252 -4.29211 17258 ft 250 kts
2026-04-26 21:32 56.53984 -4.28795 17259 ft 252 kts
2026-04-26 21:32 56.55728 -4.28377 17262 ft 254 kts
2026-04-26 21:33 56.57493 -4.27951 17266 ft 257 kts
2026-04-26 21:33 56.59271 -4.27528 17260 ft 259 kts
2026-04-26 21:33 56.61061 -4.27095 17259 ft 260 kts
2026-04-26 21:33 56.62863 -4.26663 17260 ft 261 kts
2026-04-26 21:34 56.64671 -4.26234 17264 ft 263 kts
2026-04-26 21:34 56.66488 -4.25792 17258 ft 264 kts
2026-04-26 21:34 56.68311 -4.25350 17264 ft 264 kts
2026-04-26 21:34 56.70136 -4.24911 17258 ft 265 kts
2026-04-26 21:35 56.71964 -4.24467 17257 ft 265 kts
2026-04-26 21:35 56.73791 -4.24023 17256 ft 265 kts
2026-04-26 21:35 56.75593 -4.23589 17259 ft 265 kts
2026-04-26 21:35 56.77420 -4.23144 17287 ft 265 kts
2026-04-26 21:36 56.79253 -4.22703 17265 ft 266 kts
2026-04-26 21:36 56.80491 -4.22404 17262 ft 266 kts
2026-04-26 21:36 56.82919 -4.21815 17270 ft 266 kts
2026-04-26 21:36 56.84755 -4.21368 17250 ft 267 kts
2026-04-26 21:37 56.86593 -4.20917 17264 ft 266 kts
2026-04-26 21:37 56.88431 -4.20471 17266 ft 266 kts
2026-04-26 21:37 56.90272 -4.20023 17265 ft 267 kts
2026-04-26 21:37 56.92111 -4.19574 17262 ft 267 kts
2026-04-26 21:38 56.93958 -4.19119 17266 ft 268 kts
2026-04-26 21:38 56.95802 -4.18670 17260 ft 267 kts
2026-04-26 21:38 56.97646 -4.18217 17267 ft 268 kts
2026-04-26 21:38 56.99495 -4.17764 17271 ft 268 kts
2026-04-26 21:39 57.01344 -4.17311 17255 ft 268 kts
2026-04-26 21:39 57.03189 -4.16856 17260 ft 267 kts
2026-04-26 21:39 57.05032 -4.16404 17261 ft 266 kts
2026-04-26 21:39 57.06863 -4.15953 17278 ft 265 kts
2026-04-26 21:40 57.08691 -4.15504 17283 ft 265 kts
2026-04-26 21:40 57.10527 -4.15049 17272 ft 266 kts
2026-04-26 21:40 57.12365 -4.14590 17269 ft 267 kts
2026-04-26 21:40 57.14203 -4.14142 17263 ft 267 kts
2026-04-26 21:41 57.16043 -4.13688 17263 ft 267 kts
2026-04-26 21:41 57.17883 -4.13230 17270 ft 266 kts
2026-04-26 21:41 57.19719 -4.12777 17268 ft 267 kts
2026-04-26 21:41 57.21560 -4.12319 17267 ft 267 kts
2026-04-26 21:42 57.23397 -4.11862 17261 ft 266 kts
2026-04-26 21:42 57.25233 -4.11405 17265 ft 266 kts
2026-04-26 21:42 57.27067 -4.10949 17270 ft 266 kts
2026-04-26 21:42 57.28902 -4.10491 17268 ft 266 kts
2026-04-26 21:43 57.30735 -4.10040 17266 ft 266 kts
2026-04-26 21:43 57.32567 -4.09578 17285 ft 266 kts
2026-04-26 21:43 57.34407 -4.09123 17278 ft 267 kts
2026-04-26 21:43 57.36250 -4.08660 17269 ft 268 kts
2026-04-26 21:44 57.38096 -4.08197 17262 ft 268 kts
2026-04-26 21:44 57.39919 -4.07737 17264 ft 268 kts
2026-04-26 21:44 57.41788 -4.07271 17267 ft 267 kts
2026-04-26 21:44 57.43634 -4.06806 17269 ft 268 kts
2026-04-26 21:45 57.45455 -4.06347 17270 ft 268 kts
2026-04-26 21:45 57.47302 -4.05882 17267 ft 268 kts
2026-04-26 21:45 57.49154 -4.05414 17261 ft 268 kts
2026-04-26 21:45 57.51004 -4.04950 17265 ft 268 kts
2026-04-26 21:46 57.52850 -4.04483 17266 ft 268 kts
2026-04-26 21:46 57.54685 -4.03890 17263 ft 271 kts 11°
2026-04-26 21:46 57.56418 -4.02396 17265 ft 278 kts 23°
2026-04-26 21:46 57.58098 -4.00576 17263 ft 279 kts 25°
2026-04-26 21:47 57.59768 -3.98727 17278 ft 280 kts 24°
2026-04-26 21:47 57.61458 -3.96930 17271 ft 279 kts 22°
2026-04-26 21:47 57.63165 -3.95216 17268 ft 278 kts 21°
2026-04-26 21:47 57.64872 -3.93516 17265 ft 279 kts 22°
2026-04-26 21:48 57.66579 -3.91804 17260 ft 279 kts 22°
2026-04-26 21:48 57.68288 -3.90085 17260 ft 279 kts 22°
2026-04-26 21:48 57.69994 -3.88367 17260 ft 279 kts 22°
2026-04-26 21:48 57.71699 -3.86650 17260 ft 279 kts 22°
2026-04-26 21:49 57.73408 -3.84927 17261 ft 279 kts 22°
2026-04-26 21:49 57.75114 -3.83203 17260 ft 279 kts 22°
2026-04-26 21:49 57.76820 -3.81477 17257 ft 279 kts 22°
2026-04-26 21:49 57.78525 -3.79749 17257 ft 279 kts 22°
2026-04-26 21:50 57.80229 -3.78023 17257 ft 279 kts 22°
2026-04-26 21:50 57.81358 -3.76878 17257 ft 278 kts 22°
2026-04-26 21:50 57.83637 -3.74561 17260 ft 279 kts 22°
2026-04-26 21:50 57.85315 -3.72857 17260 ft 278 kts 22°
2026-04-26 21:51 57.87021 -3.71122 17259 ft 278 kts 22°
2026-04-26 21:51 57.88726 -3.69386 17275 ft 279 kts 22°
2026-04-26 21:51 57.90432 -3.67641 17267 ft 279 kts 22°
2026-04-26 21:51 57.92135 -3.65900 17262 ft 279 kts 22°
2026-04-26 21:52 57.93847 -3.64176 17259 ft 279 kts 23°
2026-04-26 21:52 57.95557 -3.62457 17257 ft 279 kts 23°
2026-04-26 21:52 57.97268 -3.60722 17257 ft 279 kts 23°
2026-04-26 21:52 57.98970 -3.58974 17254 ft 279 kts 24°
2026-04-26 21:53 58.00677 -3.57214 17252 ft 279 kts 24°
2026-04-26 21:53 58.02380 -3.55455 17252 ft 279 kts 24°
2026-04-26 21:53 58.04083 -3.53699 17252 ft 279 kts 24°
2026-04-26 21:53 58.05790 -3.51942 17251 ft 279 kts 23°
2026-04-26 21:54 58.07494 -3.50187 17255 ft 279 kts 24°
2026-04-26 21:54 58.09199 -3.48428 17255 ft 279 kts 23°
2026-04-26 21:54 58.10905 -3.46665 17252 ft 279 kts 24°
2026-04-26 21:54 58.12607 -3.44905 17252 ft 279 kts 24°
2026-04-26 21:55 58.14311 -3.43138 17247 ft 279 kts 24°
2026-04-26 21:55 58.16015 -3.41373 17260 ft 279 kts 24°
2026-04-26 21:55 58.17721 -3.39610 17253 ft 279 kts 24°
2026-04-26 21:55 58.19421 -3.37840 17248 ft 279 kts 24°
2026-04-26 21:56 58.21127 -3.36056 17250 ft 279 kts 24°
2026-04-26 21:56 58.22829 -3.34280 17245 ft 279 kts 24°
2026-04-26 21:56 58.24535 -3.32500 17244 ft 279 kts 24°
2026-04-26 21:56 58.26240 -3.30723 17221 ft 280 kts 24°
2026-04-26 21:57 58.27957 -3.28932 17135 ft 283 kts 24°
2026-04-26 21:57 58.29099 -3.27738 17083 ft 284 kts 24°
2026-04-26 21:57 58.30841 -3.25914 16861 ft 291 kts 25°
2026-04-26 21:57 58.32645 -3.24024 16425 ft 299 kts 25°
2026-04-26 21:58 58.34481 -3.22089 15964 ft 304 kts 25°
2026-04-26 21:58 58.36338 -3.20129 15554 ft 306 kts 25°
2026-04-26 21:58 58.38207 -3.18163 15121 ft 307 kts 25°
2026-04-26 21:58 58.40079 -3.16196 14689 ft 308 kts 26°
2026-04-26 21:59 58.41959 -3.14216 14258 ft 309 kts 26°
2026-04-26 21:59 58.43834 -3.12233 13803 ft 307 kts 26°
2026-04-26 21:59 58.45697 -3.10281 13348 ft 303 kts 24°
2026-04-26 21:59 58.47667 -3.09032 12892 ft 296 kts
2026-04-26 22:00 58.49682 -3.08323 12451 ft 293 kts
2026-04-26 22:00 58.51690 -3.07680 12022 ft 292 kts
2026-04-26 22:00 58.53683 -3.06955 11599 ft 291 kts
2026-04-26 22:00 58.55664 -3.06138 11189 ft 291 kts
2026-04-26 22:01 58.57637 -3.05322 10779 ft 289 kts
2026-04-26 22:01 58.59599 -3.04521 10377 ft 288 kts
2026-04-26 22:01 58.61556 -3.03715 9945 ft 287 kts
2026-04-26 22:01 58.63504 -3.02919 9523 ft 285 kts
2026-04-26 22:02 58.65440 -3.02122 9100 ft 284 kts
2026-04-26 22:02 58.67370 -3.01329 8683 ft 283 kts
2026-04-26 22:02 58.69278 -3.00547 8397 ft 277 kts
2026-04-26 22:02 58.71143 -2.99780 8115 ft 271 kts
2026-04-26 22:03 58.72966 -2.99024 7842 ft 267 kts
2026-04-26 22:03 58.74776 -2.98279 7568 ft 263 kts
2026-04-26 22:03 58.76519 -2.97558 7300 ft 257 kts
2026-04-26 22:03 58.78249 -2.96843 7023 ft 252 kts
2026-04-26 22:04 58.79944 -2.96143 6737 ft 248 kts
2026-04-26 22:04 58.81616 -2.95447 6443 ft 243 kts
2026-04-26 22:04 58.83257 -2.94788 6122 ft 239 kts
2026-04-26 22:04 58.84873 -2.94156 5808 ft 235 kts
2026-04-26 22:05 58.86465 -2.93537 5396 ft 226 kts
2026-04-26 22:05 58.87950 -2.92952 4988 ft 210 kts
2026-04-26 22:05 58.89343 -2.92403 4553 ft 199 kts
2026-04-26 22:05 58.90667 -2.91881 4125 ft 190 kts
2026-04-26 22:06 58.91945 -2.91372 3725 ft 188 kts
2026-04-26 22:06 58.93240 -2.90870 3311 ft 189 kts
2026-04-26 22:06 58.94523 -2.90367 2895 ft 187 kts
2026-04-26 22:06 58.95790 -2.89870 2536 ft 183 kts
2026-04-26 22:07 58.97000 -2.89322 2315 ft 178 kts 20°
2026-04-26 22:07 58.97858 -2.87579 2227 ft 188 kts 69°
2026-04-26 22:07 58.97845 -2.85085 2188 ft 187 kts 109°
2026-04-26 22:07 58.97637 -2.82648 2161 ft 185 kts 82°
2026-04-26 22:08 58.97922 -2.80211 2152 ft 187 kts 68°
2026-04-26 22:08 58.98448 -2.77898 2146 ft 189 kts 63°
2026-04-26 22:08 58.99012 -2.75583 2147 ft 191 kts 64°
2026-04-26 22:08 58.99517 -2.73178 2145 ft 194 kts 67°
2026-04-26 22:09 59.00044 -2.70755 2145 ft 196 kts 65°
2026-04-26 22:09 59.00583 -2.68317 2144 ft 197 kts 66°
2026-04-26 22:09 59.01114 -2.65857 2141 ft 198 kts 66°
2026-04-26 22:09 59.01618 -2.63391 2134 ft 194 kts 74°
2026-04-26 22:10 59.01492 -2.60848 2138 ft 192 kts 120°
2026-04-26 22:10 59.00540 -2.59166 2139 ft 184 kts 161°
2026-04-26 22:10 58.99336 -2.58400 2129 ft 182 kts 166°
2026-04-26 22:10 58.98109 -2.57975 2130 ft 176 kts 184°
2026-04-26 22:11 58.97047 -2.58860 2144 ft 168 kts 233°
2026-04-26 22:11 58.96631 -2.60882 2151 ft 161 kts 258°
2026-04-26 22:11 58.96422 -2.63007 2145 ft 159 kts 262°
2026-04-26 22:11 58.96271 -2.65155 2038 ft 162 kts 264°
2026-04-26 22:12 58.96164 -2.67168 1955 ft 139 kts 266°
2026-04-26 22:12 58.96142 -2.68894 1914 ft 118 kts 270°
2026-04-26 22:12 58.96138 -2.70416 1912 ft 112 kts 270°
2026-04-26 22:12 58.96129 -2.71896 1909 ft 111 kts 270°
2026-04-26 22:13 58.96116 -2.73398 1912 ft 112 kts 269°
2026-04-26 22:13 58.96103 -2.74973 1734 ft 120 kts 270°
2026-04-26 22:13 58.96092 -2.76556 1543 ft 114 kts 269°
2026-04-26 22:13 58.96071 -2.78062 1356 ft 110 kts 269°
2026-04-26 22:14 58.96052 -2.79545 1162 ft 110 kts 269°
2026-04-26 22:14 58.96039 -2.81031 968 ft 111 kts 269°
2026-04-26 22:14 58.96019 -2.82556 729 ft 115 kts 266°
2026-04-26 22:14 58.96000 -2.84093 564 ft 113 kts 267°
2026-04-26 22:15 58.95937 -2.85608 435 ft 112 kts 262°
2026-04-26 22:15 58.95876 -2.87126 249 ft 112 kts 265°
2026-04-26 22:15 58.95836 -2.88625 98 ft 110 kts 265°
2026-04-26 22:15 58.95800 -2.90020 46 ft 78 kts 266°
2026-04-26 22:16 58.95791 -2.90533 45 ft 12 kts 267°
2026-04-26 22:16 58.95790 -2.90582 43 ft 0 kts 267°
2026-04-26 22:16 58.95787 -2.90685 45 ft 11 kts 264°
2026-04-26 22:16 58.95784 -2.90847 45 ft 13 kts 274°
2026-04-26 22:17 58.95791 -2.90965 47 ft 4 kts 232°
2026-04-26 22:17 58.95779 -2.90949 46 ft 5 kts 109°
2026-04-26 22:17 58.95785 -2.90725 45 ft 20 kts 88°
2026-04-26 22:17 58.95786 -2.90517 41 ft 9 kts 102°
2026-04-26 22:18 58.95747 -2.90434 46 ft 8 kts 140°
2026-04-26 22:18 58.95707 -2.90372 47 ft 7 kts 141°
2026-04-26 22:18 58.95676 -2.90321 49 ft 5 kts 139°
2026-04-26 22:18 58.95651 -2.90280 50 ft 4 kts 143°
2026-04-26 22:19 58.95595 -2.90192 51 ft 12 kts 139°
2026-04-26 22:19 58.95545 -2.90112 50 ft 7 kts 141°
2026-04-26 22:19 58.95508 -2.90122 47 ft 6 kts 214°
2026-04-26 22:19 58.95473 -2.90155 51 ft 5 kts 181°
2026-04-26 22:20 58.95454 -2.90167 51 ft 3 kts 221°
2026-04-26 22:20 58.95446 -2.90182 50 ft 0 kts 221°